Regional Weather Roundup
Issued by NWS

Home | Current Version | Previous Version | Graphics & Text | Print | Product List | Glossary On
Versions: 1 2 3 4 5 6 7 8 9 10 11 12 13 14 15 16 17 18 19 20 21 22 23 24 25 26 27 28 29 30 31 32 33 34 35 36 37 38 39 40 41 42 43 44 45 46 47 48 49 50
271
ASUS43 KOAX 242310
RWRNE

WEATHER ROUNDUP FOR NEBRASKA
NATIONAL WEATHER SERVICE OMAHA NE
600 PM CDT WED MAY 24 2017

NOTES: SATELLITE DATA IS BEING USED TO AUGMENT CLOUD COVER ABOVE
       12000 FEET.
       "FAIR" INDICATES FEW OR NO CLOUDS BELOW 12,000 FEET WITH NO
       SIGNIFICANT WEATHER AND/OR OBSTRUCTIONS TO VISIBILITY.

  * THESE STATIONS DO NOT REPORT WEATHER SUCH AS RAIN...SNOW OR FOG.

NEZ001>004-019>022-054>056-250000-
NEBRASKA PANHANDLE

CITY           SKY/WX    TMP DP  RH WIND       PRES   REMARKS
SCOTTSBLUFF    SUNNY     81  48  31 SE14      29.47F
ALLIANCE       SUNNY     77  48  35 S16       29.49F
CHADRON        SUNNY     80  48  32 S18G26    29.40F
GORDON         FAIR      77  44  30 S14       29.49F
KIMBALL        MOSUNNY   80  39  23 W10       29.56F
SIDNEY         SUNNY     77  47  34 S13G24    29.54F
$$

NEZ057>060-069>072-079>082-250000-
SOUTHWEST NEBRASKA

CITY           SKY/WX    TMP DP  RH WIND       PRES   REMARKS
NORTH PLATTE   SUNNY     71  44  37 S10G18    29.60F
IMPERIAL       SUNNY     74  44  34 SE21      29.57F
LEXINGTON      SUNNY     68  42  39 S10       29.64F
MCCOOK         SUNNY     73  43  33 S12       29.61F
OGALLALA       SUNNY     77  43  30 S16G22    29.56F
$$

NEZ005>010-023>029-035>040-094-250000-
NORTH CENTRAL NEBRASKA

CITY           SKY/WX    TMP DP  RH WIND       PRES   REMARKS
VALENTINE      SUNNY     73  34  23 SE17G26   29.55F
AINSWORTH      SUNNY     68  42  39 S13G18    29.60F
BROKEN BOW     SUNNY     66  40  38 S8        29.64F
O`NEILL        SUNNY     66  41  39 SE12G17   29.64F
ORD            SUNNY     66  40  38 S12       29.64F
THEDFORD       SUNNY     71  41  33 S15G23    29.60F
$$

NEZ041-046>049-061>064-073>077-083>087-250000-
SOUTH CENTRAL NEBRASKA

CITY           SKY/WX    TMP DP  RH WIND       PRES   REMARKS
GRAND ISLAND   SUNNY     64  42  44 S8        29.69F
AURORA         MOSUNNY   66  40  38 SW6       29.68F
HASTINGS       SUNNY     65  41  41 SE6       29.69F
HEBRON         SUNNY     66  42  40 CALM      29.69F
HOLDREGE       SUNNY     65  40  38 SE8G16    29.67F
KEARNEY *      SUNNY     66  39  37 S8        29.67F
YORK           SUNNY     64  39  39 CALM      29.69S
$$

NEZ011>018-030>034-042>045-250000-
NORTHEAST NEBRASKA

CITY           SKY/WX    TMP DP  RH WIND       PRES   REMARKS
NORFOLK        SUNNY     65  42  43 S7        29.67F
ALBION         MOSUNNY   68  40  36 S8        29.66F
BLAIR          SUNNY     65  45  47 NW3       29.69S
FREMONT        PTSUNNY   66  42  42 CALM      29.69F
TEKAMAH        SUNNY     64  40  41 CALM      29.68F
WAYNE          SUNNY     65  43  43 CALM      29.67F
$$

NEZ050>053-065>068-078-088>093-250000-
SOUTHEAST NEBRASKA

CITY           SKY/WX    TMP DP  RH WIND       PRES   REMARKS
LINCOLN        MOSUNNY   66  42  41 CALM      29.70S
OMAHA EPPLEY   PTSUNNY   66  44  45 N5        29.68F
BEATRICE       MOSUNNY   65  44  45 N5        29.69F
FALLS CITY     PTSUNNY   67  44  43 N7        29.67F
NEBRASKA CITY  PTSUNNY   66  37  33 N3        29.69S
PLATTSMOUTH    PTSUNNY   68  43  40 NW3       29.69S
$$

NEZ044-045-051>053-067-250000-
OMAHA AREA

CITY           SKY/WX    TMP DP  RH WIND       PRES   REMARKS
OMAHA EPPLEY   PTSUNNY   66  44  45 N5        29.68F
BLAIR          SUNNY     65  45  47 NW3       29.69S
FREMONT        PTSUNNY   66  42  42 CALM      29.69F
MILLARD        PTSUNNY   66  44  44 NE3       29.69S
OFFUTT AFB     CLOUDY    67  43  41 CALM      29.68S
PLATTSMOUTH    PTSUNNY   68  43  40 NW3       29.69S
WAHOO          FAIR      66  42  42 E7        29.69S
$$




USA.gov is the U.S. government's official web portal to all federal, state and local government web resources and services.